Simultaneous Nadir Overpasses (SNOs) Predictions

Prediction of SNOs between NOAA-15 and METOP-C Satellite Orbit:

Table of predicted SNOs for the next 14.0 days since TLE Epoch: 3/8/2025
Index Date (NOAA-15) Time (NOAA-15) Lat,Lon (NOAA-15) SZA (NOAA-15 ) Date (METOP-C) Time (METOP-C) Lat,Lon (METOP-C) SZA (METOP-C ) Distance(km) Time Diff (sec)
1 03/16/2025 09:18:23 -80.96,-101.21 95.76 03/16/2025 09:17:16 -80.92,-104.54 96.11 58.42 67
2 03/16/2025 10:08:57 81.02, 64.94 84.17 03/16/2025 10:07:50 81.03, 65.01 84.16 1.36 67
3 03/16/2025 10:59:25 -81.02,-127.70 95.85 03/16/2025 10:58:32 -81.02,-127.84 95.88 2.49 53
4 03/16/2025 11:49:56 81.03, 39.53 84.14 03/16/2025 11:49:12 81.02, 39.53 84.11 1.21 44
5 03/16/2025 12:40:24 -81.03,-153.12 95.88 03/16/2025 12:39:53 -81.03,-152.96 95.88 2.85 31
6 03/16/2025 13:30:54 81.02, 14.48 84.12 03/16/2025 13:30:33 81.03, 14.42 84.11 1.47 21
7 03/16/2025 14:21:22 -81.02,-178.17 95.90 03/16/2025 14:21:14 -81.04,-178.07 95.88 2.43 8
8 03/16/2025 15:11:53 81.03, -10.93 84.09 03/16/2025 15:11:55 81.03, -11.07 84.07 2.39 2
9 03/16/2025 16:02:21 -81.03, 156.41 95.94 03/16/2025 16:02:36 -81.03, 156.45 95.93 0.62 15
10 03/16/2025 16:52:52 81.04, -36.34 84.05 03/16/2025 16:53:16 81.03, -36.18 84.07 2.91 24
11 03/16/2025 17:43:20 -81.04, 131.00 95.97 03/16/2025 17:43:58 -81.03, 130.97 95.97 1.68 38
12 03/16/2025 18:33:50 81.03, -61.39 84.03 03/16/2025 18:34:37 81.04, -61.29 84.07 2.42 47
13 03/16/2025 19:24:18 -81.03, 105.95 95.99 03/16/2025 19:25:19 -81.04, 105.85 95.97 1.68 61



Historial Predications of SNOs between NOAA-15 and METOP-C
